ECMWFFLT1_925_spd_021.txt.gz
Wind_Speed
12 11 10 10 9 8 7 6 7 8 8 8 7 6 6 5 6 7 7 9 10 11 11 12 12 11 9 9 9 8 8 7 7 7 6 5 4 4 4 3 2 1 1 1 2 2 2 2 2 2 3 4 5 5 2 1 2 4 5 5 5 6 7
13 11 11 12 11 10 9 8 7 8 9 9 9 8 8 9 11 12 12 12 13 13 13 12 12 11 10 9 9 8 8 8 8 7 7 7 6 5 4 4 5 4 2 2 4 4 2 3 2 2 3 6 6 3 2 4 5 6 6 7 7 8 8
15 12 12 13 12 11 10 9 9 9 9 9 10 11 11 11 12 12 12 12 12 12 12 12 12 12 11 11 11 10 9 9 9 8 7 8 7 7 6 5 5 5 3 3 4 5 4 3 3 4 5 6 5 5 6 7 7 8 8 8 9 9 8
17 14 14 15 14 13 12 11 10 10 10 10 11 10 10 10 10 9 9 10 10 11 11 12 12 12 12 12 12 12 12 12 11 10 9 8 8 8 8 7 6 5 4 3 4 5 4 4 4 5 6 6 8 9 7 7 10 10 7 7 7 7 7
19 17 16 17 16 15 14 13 12 12 12 12 11 10 10 9 8 8 7 8 8 9 10 11 11 11 11 11 12 12 13 13 12 12 12 11 10 9 9 8 6 5 4 4 3 4 5 5 6 6 7 8 9 9 9 10 12 10 8 8 7 6 6
22 19 18 18 17 16 15 15 14 14 14 14 13 12 11 9 8 7 7 6 6 7 8 9 10 11 11 11 11 11 12 12 11 12 12 12 11 10 8 7 6 5 5 4 4 4 4 5 6 7 8 9 9 10 11 11 11 11 10 9 7 7 6
23 22 20 19 18 17 16 16 16 16 16 15 15 14 12 11 9 7 7 6 5 5 6 7 8 9 10 11 11 11 11 10 10 11 11 10 11 10 9 7 7 6 5 4 4 4 4 4 5 6 8 9 10 11 11 11 12 12 11 9 8 9 8
24 23 22 20 19 18 17 17 17 16 16 15 14 14 13 12 10 8 7 6 5 5 5 6 7 7 9 10 10 10 10 9 9 9 9 8 8 8 8 7 6 6 5 5 4 4 4 4 4 5 6 7 8 8 9 10 11 11 11 11 11 11 9
26 25 24 22 20 19 18 17 17 16 16 15 14 14 14 12 11 9 8 7 6 5 5 5 6 6 7 8 9 9 8 8 7 7 7 7 7 7 6 6 6 5 5 4 4 4 4 3 4 4 5 6 6 6 6 8 9 9 9 10 10 8 6
28 27 26 24 22 20 19 18 17 17 16 15 15 15 15 14 12 10 9 8 7 5 5 5 5 6 7 7 8 7 6 6 5 5 5 5 5 5 5 5 4 4 4 3 3 3 3 3 3 3 4 5 6 6 6 6 7 8 8 8 9 9 7
29 28 27 26 23 22 21 20 19 18 17 16 16 16 16 15 13 12 10 10 8 6 6 6 5 5 6 6 7 6 5 4 4 4 4 4 4 4 3 3 3 3 3 3 3 2 2 2 2 2 4 5 6 7 8 8 8 9 9 10 10 10 10
29 29 28 27 25 24 24 23 21 20 19 17 17 17 17 16 15 14 13 11 10 7 6 7 6 5 5 5 5 4 4 4 4 3 3 2 3 3 3 3 3 3 3 3 3 3 3 2 3 3 4 5 6 8 9 9 9 8 8 10 11 11 13
30 30 29 29 28 27 26 25 24 22 20 19 18 18 18 17 16 16 15 14 12 9 8 8 7 5 5 4 4 4 3 3 3 2 2 2 2 2 3 3 3 4 4 4 4 4 4 4 4 5 5 6 7 8 10 11 11 11 12 13 14 15 14
30 30 30 31 30 29 28 27 26 24 22 21 20 20 19 18 17 17 17 16 13 11 9 9 8 6 5 4 4 3 2 2 2 1 1 1 2 3 3 4 5 5 5 5 5 6 6 5 6 6 7 7 8 8 9 12 13 14 14 12 13 15 13
31 31 31 32 32 32 31 30 29 26 24 23 21 21 21 20 19 18 18 17 15 12 11 10 9 7 6 5 4 3 3 3 2 1 1 2 3 4 5 6 6 7 6 6 6 7 7 6 6 7 7 8 9 9 10 12 14 15 15 12 12 14 13
32 32 32 32 34 34 33 32 31 29 26 25 23 23 23 22 20 20 20 18 16 14 13 11 9 8 7 6 6 4 4 4 3 2 1 1 2 4 5 6 7 8 8 8 8 8 8 7 7 8 8 8 9 10 11 12 14 16 18 16 13 13 13
32 31 31 32 33 34 33 32 32 30 28 26 25 24 24 23 22 22 21 20 18 15 14 12 10 9 8 7 6 6 5 4 4 2 1 1 3 4 5 6 7 8 8 9 9 8 8 8 8 9 9 9 9 10 11 12 14 16 18 19 16 14 14
30 29 29 30 32 33 33 31 31 30 28 27 26 26 25 25 24 24 23 21 19 16 14 12 11 9 8 7 6 6 5 4 3 2 2 3 4 5 6 7 8 8 9 9 10 9 9 10 10 10 11 11 10 10 11 12 14 15 18 20 19 17 16
28 28 29 30 31 32 31 31 31 30 28 27 26 26 27 27 27 26 25 22 19 16 14 13 12 10 9 7 6 6 5 3 2 2 4 5 6 7 8 9 9 9 10 10 11 11 11 11 12 12 12 13 13 12 13 14 15 15 17 20 21 20 17
27 28 28 29 30 30 31 32 30 27 26 25 24 25 27 29 29 27 25 22 19 17 15 14 12 11 9 8 7 6 5 3 3 4 6 7 8 9 9 9 10 10 11 11 12 12 12 12 12 13 13 13 13 14 15 15 16 17 18 19 20 20 18
22 25 26 27 26 27 28 27 24 21 20 21 22 25 28 30 29 26 25 22 19 16 15 15 13 11 10 9 8 7 5 4 4 5 6 7 8 9 9 10 11 11 11 12 13 13 14 13 13 14 14 13 14 15 16 16 17 18 19 20 19 19 18
17 19 22 24 25 25 24 22 20 20 20 20 23 26 27 28 28 27 24 22 19 18 17 16 14 12 11 10 8 7 5 4 3 3 4 6 7 9 10 12 13 14 15 15 16 17 17 18 18 17 16 15 15 17 17 18 18 17 18 19 19 18 18
13 15 18 21 23 24 24 23 23 24 24 24 25 27 29 30 31 30 28 25 23 22 21 18 15 13 11 10 8 6 4 3 2 2 3 5 8 10 12 14 16 18 19 19 18 18 19 20 21 21 21 19 18 18 19 19 19 19 19 19 18 18 18
12 13 14 17 20 23 24 25 25 25 24 24 27 29 32 34 34 33 30 27 25 24 22 18 15 13 12 10 8 5 4 2 2 3 5 7 9 11 13 15 16 17 18 18 17 17 19 20 21 22 23 23 22 22 21 21 21 20 21 21 21 20 20
14 13 13 15 19 21 22 24 25 24 25 26 29 32 35 36 35 32 30 27 25 23 20 18 16 13 11 9 7 5 3 1 2 4 6 8 11 12 14 15 15 15 16 18 18 18 18 20 20 21 22 23 24 25 25 26 24 22 21 21 22 22 22
15 14 13 14 17 19 21 22 23 25 27 28 30 34 36 36 34 32 29 27 24 22 19 17 15 12 10 9 6 4 2 2 4 5 8 10 12 13 14 14 15 15 15 17 18 17 17 17 18 20 21 22 24 25 26 28 29 28 27 25 25 24 23
15 15 14 13 14 17 20 22 24 26 28 29 31 35 36 35 33 31 29 27 24 21 19 16 14 12 11 8 5 2 1 4 6 8 10 12 13 13 14 15 15 15 16 16 16 16 16 16 17 18 19 20 21 22 23 25 27 29 30 30 31 30 26
15 15 14 13 13 16 19 22 25 26 28 29 32 36 36 35 33 31 29 26 24 21 19 16 14 12 10 7 4 2 4 7 9 10 12 14 14 14 14 15 16 16 16 16 16 16 16 16 18 19 20 21 22 22 23 24 24 25 27 28 29 30 28
15 16 15 13 13 16 18 21 25 26 27 29 32 35 36 35 34 32 29 26 24 21 18 15 13 11 8 4 2 3 6 8 10 12 13 15 15 15 15 16 16 16 16 16 16 17 18 18 19 21 22 22 23 23 23 23 23 25 26 27 28 29 29
16 16 15 14 14 16 18 21 25 27 27 29 31 33 34 34 33 31 28 25 23 21 18 15 12 8 5 2 4 6 8 9 10 13 14 15 16 16 17 19 19 17 17 17 16 17 18 18 19 21 23 24 24 24 23 22 23 24 26 27 29 30 32
16 17 17 15 15 17 17 19 24 27 27 28 29 30 31 30 28 27 25 23 21 19 16 13 8 4 2 4 7 8 9 9 11 13 14 14 15 15 17 20 19 17 17 18 18 19 19 20 21 22 23 24 25 25 23 21 22 23 24 25 27 28 29
17 17 17 17 16 17 16 17 22 25 25 25 25 26 28 27 25 23 22 20 17 14 12 9 5 2 3 5 9 10 10 10 12 14 14 15 16 16 15 16 17 17 19 20 20 21 21 21 22 23 24 25 26 26 23 21 22 22 22 24 24 25 26
18 19 19 18 16 16 17 19 22 22 22 23 23 24 26 27 25 23 20 17 13 10 7 4 2 3 4 7 10 12 12 12 13 15 16 16 17 17 16 17 17 18 20 22 22 23 23 22 23 24 25 26 27 26 23 22 23 23 24 25 25 25 26
19 20 19 17 17 17 19 21 22 23 24 25 25 25 26 25 24 21 18 15 11 7 3 1 2 4 7 9 12 15 15 14 15 17 17 17 18 19 20 20 20 20 20 21 23 24 24 25 25 26 26 27 29 28 27 27 28 27 28 29 28 27 27
20 19 16 16 17 18 19 21 23 25 28 29 29 28 25 23 21 19 16 12 8 5 2 1 3 5 8 10 12 15 16 17 19 19 18 19 21 22 22 21 21 20 21 22 24 26 28 29 29 28 29 30 31 32 32 31 30 29 28 28 28 27 27
19 16 15 16 18 19 21 23 26 30 32 33 31 27 23 21 19 17 14 11 6 3 0 2 4 6 8 11 13 15 17 20 22 20 19 20 23 23 22 21 21 22 23 26 28 30 31 31 30 29 30 32 33 34 33 31 30 29 28 27 27 27 27
15 15 16 18 20 22 25 28 30 32 32 31 28 26 22 19 17 15 12 8 4 1 2 4 5 7 9 11 14 16 19 21 23 22 20 20 22 21 21 22 23 25 28 30 31 31 31 31 29 29 30 31 32 32 31 29 28 27 26 26 26 27 27

ECMWFFLT1_925_spd_024.txt.gz
Wind_Speed
7 8 8 8 7 7 7 7 7 7 7 6 6 5 5 5 5 6 6 6 6 6 5 5 5 4 4 4 5 4 3 3 2 1 2 1 1 2 2 3 2 2 3 0 1 1 2 2 5 6 5 8 8 6 5 5 5 4 4 5 6 8 8
7 8 9 8 8 8 7 7 7 7 7 6 6 6 6 7 7 8 8 7 7 6 6 6 6 5 5 5 5 5 4 4 4 2 1 1 1 1 1 2 2 2 3 1 1 2 3 2 2 2 0 1 5 6 5 5 6 6 6 7 8 8 9
8 7 8 9 9 8 8 8 7 7 7 7 7 7 8 8 8 8 8 7 7 6 6 7 6 6 6 6 6 6 6 5 5 4 3 2 1 1 1 2 3 3 4 3 2 4 5 5 4 3 3 2 3 5 7 7 9 9 10 11 10 11 12
10 8 8 9 9 9 8 8 7 7 7 7 8 8 8 8 8 7 7 7 7 6 6 6 6 6 6 6 6 6 6 6 5 5 5 4 3 2 2 1 1 1 2 3 3 4 5 5 5 5 6 6 6 7 7 7 8 10 11 13 13 12 12
12 11 10 10 10 10 9 9 8 8 8 8 8 8 8 8 7 7 7 6 6 6 6 6 6 6 6 6 6 6 6 6 6 5 5 4 3 3 3 2 2 2 1 1 2 4 5 5 5 5 6 7 7 7 7 6 8 10 11 12 13 13 12
13 12 11 10 11 10 10 10 9 9 9 9 9 9 9 9 8 7 6 5 6 6 6 6 6 6 6 6 6 6 6 6 6 6 6 5 4 3 3 2 2 2 1 1 1 3 4 5 5 6 7 7 7 8 8 9 10 10 10 11 12 13 13
13 14 12 11 11 11 10 10 10 9 9 10 10 10 10 10 8 7 7 6 6 7 6 6 6 5 5 5 6 6 6 6 6 7 6 6 5 4 3 3 2 2 1 1 1 2 3 4 5 6 6 7 7 9 10 9 9 9 8 9 10 11 11
13 13 13 12 11 11 10 10 11 10 9 9 10 10 11 11 9 9 8 7 7 7 7 6 6 5 5 5 5 6 6 6 6 6 6 6 5 5 4 3 2 2 2 1 1 2 2 3 4 5 6 6 6 7 7 7 8 8 7 7 8 9 10
14 13 13 12 12 12 11 11 11 11 10 9 10 11 12 11 10 10 9 8 8 7 7 6 6 6 5 5 5 5 5 5 6 5 5 5 5 4 4 3 2 2 2 2 2 2 2 2 3 4 5 5 6 5 5 5 5 5 5 5 6 6 7
16 16 14 13 13 13 13 12 11 11 11 10 10 12 13 12 11 11 10 9 9 8 8 7 6 6 6 5 5 5 5 5 5 5 4 4 4 3 3 2 1 1 2 2 2 2 3 3 4 4 5 5 5 5 5 5 5 5 5 5 6 6 6
18 17 16 14 13 13 13 13 12 12 12 12 12 13 14 13 12 12 11 10 10 9 9 8 7 7 6 6 6 5 5 5 4 4 4 3 3 2 2 1 0 0 0 1 2 2 3 4 4 5 5 5 5 6 6 6 6 7 8 7 8 7 8
18 17 17 16 15 14 15 14 14 14 13 14 14 14 15 15 14 13 12 12 11 11 10 9 8 7 6 6 6 6 5 5 5 4 3 3 2 2 2 1 0 0 1 2 3 3 3 4 4 5 6 6 6 7 8 8 7 7 8 8 8 9 10
18 18 17 17 16 15 15 15 15 15 15 15 15 16 16 16 16 15 14 13 13 12 11 11 10 8 7 7 6 6 6 6 6 5 4 3 3 2 2 1 1 1 2 3 4 4 4 5 5 6 6 7 7 7 9 10 9 8 10 10 12 13 13
17 17 17 17 17 16 15 15 15 15 15 16 16 17 17 17 17 16 15 14 14 13 12 12 11 10 9 8 7 7 7 7 6 6 5 5 4 3 2 2 2 2 3 4 5 5 6 6 6 7 7 7 8 8 9 11 11 11 11 11 12 12 12
17 17 17 17 17 16 15 15 15 15 15 15 17 18 18 18 17 17 16 15 14 14 13 13 12 11 10 10 9 8 8 8 7 6 5 5 5 4 3 2 2 2 3 4 5 6 6 6 7 8 8 8 9 9 9 11 12 12 12 12 12 12 12
16 17 17 17 17 16 15 15 15 15 15 14 15 17 18 18 18 17 17 16 16 15 14 13 13 11 11 11 11 10 9 8 8 7 7 6 5 4 3 3 3 3 3 4 5 6 6 7 8 8 9 9 10 11 11 11 13 14 14 14 13 13 12
14 15 15 15 16 16 16 15 14 14 14 14 15 16 17 18 19 19 19 18 17 17 16 15 14 13 12 12 11 10 10 9 9 8 7 6 5 4 3 3 3 3 4 5 5 6 6 6 7 8 9 10 10 11 11 12 13 14 14 14 13 13 13
13 13 12 13 14 15 15 15 15 15 15 15 15 15 16 17 18 19 20 19 19 18 17 17 15 14 13 12 11 11 10 9 9 8 7 6 5 4 4 4 4 4 4 5 5 6 6 7 8 9 10 10 11 11 11 12 13 14 15 16 15 14 13
12 11 12 14 16 15 15 15 15 15 15 16 15 15 16 17 18 19 19 19 20 20 19 18 17 16 14 13 12 11 10 10 9 8 7 6 5 4 4 5 5 5 5 6 6 7 7 8 9 10 11 11 12 12 13 13 14 15 16 17 17 15 14
9 10 12 14 14 14 14 15 15 15 15 15 15 16 19 20 21 22 21 21 20 20 19 18 16 15 14 14 13 13 12 10 9 8 7 6 5 5 5 5 5 6 6 6 7 7 8 9 10 11 12 12 12 12 13 14 15 16 17 17 17 16 15
6 8 10 10 11 11 13 14 14 14 14 16 17 18 20 21 23 24 23 23 22 20 19 18 16 16 15 14 14 13 12 11 10 9 7 6 6 5 5 6 6 7 6 7 8 9 10 11 11 12 12 12 13 13 14 14 14 15 16 17 17 16 16
6 6 6 7 8 10 11 12 12 13 14 16 17 18 19 20 23 24 24 23 22 23 24 23 22 21 18 15 14 13 12 11 9 8 7 6 6 6 6 7 7 8 10 12 13 14 14 15 15 15 14 13 14 14 15 15 15 16 16 16 17 16 16
8 8 7 7 7 8 9 10 12 14 15 16 16 16 17 19 21 22 23 23 22 24 27 28 27 24 19 15 14 12 11 10 9 7 6 6 6 6 7 8 9 11 14 17 17 16 15 16 17 18 18 17 16 15 15 16 16 17 17 17 17 17 16
9 9 9 9 9 9 8 9 11 13 13 14 15 15 16 18 20 22 24 24 23 24 26 26 25 23 22 18 14 11 10 9 8 7 6 5 6 7 8 9 10 11 13 15 15 15 16 17 18 19 19 20 20 20 19 18 18 17 18 19 19 18 18
9 9 10 10 10 10 10 10 11 12 12 13 14 15 16 19 21 22 23 24 23 22 23 24 24 24 24 22 16 11 9 8 7 6 6 5 6 7 8 9 10 11 12 13 15 15 16 18 18 18 19 19 20 22 23 24 23 21 20 20 20 20 20
10 10 9 10 10 10 11 11 12 12 12 12 13 15 17 18 20 22 23 23 22 21 22 25 25 24 23 21 18 12 8 7 6 5 5 6 7 8 9 10 11 12 12 13 15 15 15 15 16 17 18 18 20 22 23 24 25 26 25 24 23 23 21
11 10 10 10 10 11 11 12 13 13 13 13 13 15 16 17 19 21 22 22 20 20 24 26 25 24 21 19 17 12 7 6 5 5 6 7 8 9 10 11 12 13 13 13 13 13 13 13 14 15 15 17 19 20 21 22 23 25 27 28 28 28 25
11 11 11 11 11 12 12 12 13 13 13 13 13 14 16 17 18 20 21 20 18 19 25 27 25 23 20 17 15 10 6 5 5 6 7 8 8 9 10 11 12 13 14 14 14 15 15 14 14 15 15 16 17 18 19 20 21 23 25 27 28 28 27
11 11 12 12 12 12 12 13 13 13 14 14 14 15 16 17 19 19 19 20 20 22 25 26 24 21 18 15 11 8 6 6 6 7 8 9 9 10 11 11 12 13 14 14 15 16 17 16 15 16 17 18 18 18 19 19 21 24 27 28 29 28 28
13 12 12 12 13 13 13 13 14 14 14 14 15 16 17 16 17 19 21 23 25 27 27 25 22 19 16 12 8 6 6 6 6 8 9 9 10 11 11 12 12 13 14 14 14 15 16 15 15 16 18 19 20 20 21 20 21 24 26 29 31 33 34
14 13 13 13 13 13 13 13 13 13 14 15 16 16 17 15 15 20 25 26 28 30 28 23 20 16 13 10 7 5 5 6 7 8 9 10 11 11 12 14 15 15 15 14 15 16 16 16 16 18 20 21 23 23 22 21 22 23 24 25 27 29 32
15 15 15 14 14 13 13 13 13 13 15 16 15 14 15 15 16 21 26 27 28 30 27 22 17 14 11 8 6 4 4 6 7 9 10 11 11 12 13 15 16 17 16 15 15 17 17 17 17 19 21 22 24 24 23 22 23 24 24 24 25 24 25
16 16 16 16 15 15 14 14 14 14 14 14 13 12 14 16 20 24 27 27 27 26 24 20 16 12 9 6 4 3 4 6 8 9 10 11 13 14 15 15 15 15 14 13 14 17 19 20 21 21 22 23 24 24 23 23 24 24 24 25 25 24 25
17 18 18 18 17 17 16 15 15 13 11 11 12 13 16 20 25 25 24 24 24 21 19 17 13 9 7 4 3 3 4 5 7 9 11 13 15 15 15 15 14 14 14 15 17 20 22 24 24 24 24 25 26 26 25 25 26 25 25 26 26 26 26
19 20 20 19 19 19 17 15 13 13 12 13 15 17 21 25 27 25 23 22 21 19 16 14 11 8 5 3 3 5 5 6 8 11 13 15 16 16 16 16 14 15 17 19 21 23 24 27 28 27 27 28 29 30 30 29 28 27 27 26 26 26 26
20 21 21 20 19 19 17 14 13 14 15 17 19 21 24 26 25 23 21 20 18 16 13 10 8 6 4 4 5 6 7 10 12 13 13 15 16 16 16 15 15 17 20 22 24 25 27 28 28 28 28 29 30 30 30 29 28 27 27 26 26 26 25
22 22 22 21 19 17 15 14 14 15 18 22 23 22 20 21 20 18 16 14 13 11 10 8 6 5 4 5 7 8 10 13 14 14 13 13 15 15 16 17 19 22 25 26 26 27 27 27 27 26 26 27 27 28 27 26 26 26 25 25 26 26 26

ECMWFFLT1_925_spd_030.txt.gz
Wind_Speed
13 13 11 9 8 8 7 7 7 8 8 8 8 8 9 9 9 8 7 7 8 9 9 8 7 8 8 8 9 9 9 9 9 8 6 6 6 5 4 4 2 2 5 3 2 3 1 2 2 3 3 2 3 5 6 7 8 9 8 6 5 7 7
15 14 11 10 9 8 7 6 7 7 7 8 9 8 9 9 8 8 8 8 10 11 10 9 8 7 8 8 8 9 9 9 9 9 9 9 8 6 3 3 4 4 8 5 3 4 3 2 1 2 2 3 3 5 6 6 8 9 8 8 8 8 9
16 14 13 12 10 8 7 6 6 7 6 7 9 8 8 8 8 8 8 8 9 10 10 8 8 8 8 9 9 9 9 8 8 9 10 11 9 6 7 5 3 2 4 3 2 3 2 2 2 3 5 4 4 5 6 7 8 9 9 10 12 12 13
17 15 15 14 11 10 8 7 6 7 7 7 8 8 8 8 7 7 7 8 8 8 8 7 7 7 8 8 9 9 9 9 9 9 8 9 8 6 8 9 9 7 6 6 5 4 4 2 1 3 5 5 7 7 5 5 6 8 10 11 13 14 15
18 16 16 15 13 12 10 8 8 7 8 7 7 8 7 7 6 7 7 6 7 7 7 6 6 7 7 7 7 8 8 8 8 8 7 8 8 8 8 8 8 8 9 10 9 9 9 8 6 4 7 8 5 5 4 3 5 7 8 8 8 10 11
18 16 16 15 13 12 11 10 10 9 9 8 8 8 8 7 6 6 6 5 5 6 6 6 6 6 6 7 7 7 7 8 8 8 8 8 8 8 7 7 8 9 9 9 8 8 7 7 8 5 9 12 8 8 8 5 8 9 9 8 5 5 8
17 16 15 15 14 13 12 11 10 11 11 10 9 9 9 8 7 6 6 5 5 5 5 6 6 6 6 6 7 7 6 7 7 7 7 7 7 7 7 7 7 7 7 7 7 7 6 7 8 8 8 10 9 10 10 10 10 9 8 8 6 4 7
17 16 15 15 14 13 12 12 11 10 11 11 10 10 9 9 8 7 7 6 6 5 5 5 5 6 7 6 6 6 6 6 6 6 7 7 7 7 7 7 6 6 5 6 6 7 7 7 6 6 6 5 7 7 7 11 12 6 4 4 6 4 3
17 16 14 14 15 13 11 12 12 9 10 11 11 11 11 10 9 9 8 7 7 6 5 5 5 5 6 5 5 6 5 5 5 5 5 6 6 6 6 7 6 5 5 5 5 5 6 5 5 5 4 3 3 4 4 7 9 10 16 15 6 6 10
17 17 15 13 15 14 11 10 11 10 9 9 11 13 12 11 11 10 10 10 9 8 7 7 6 6 6 6 5 5 5 5 5 4 4 4 5 5 5 6 5 4 5 5 4 5 5 5 6 5 6 4 2 2 3 4 5 7 14 17 14 14 17
16 15 14 13 13 14 12 9 9 10 10 9 9 12 13 12 12 12 11 11 11 11 10 9 8 7 7 7 6 6 7 6 5 4 5 4 4 4 3 4 5 3 4 4 3 5 5 6 6 5 6 6 5 4 4 3 4 7 12 16 15 15 18
14 13 12 11 11 12 12 10 9 10 11 11 10 12 13 13 13 14 13 13 13 12 12 10 10 9 8 8 8 7 8 8 6 6 5 4 4 4 3 4 4 3 2 3 3 3 4 4 4 5 5 6 6 6 6 4 3 6 11 15 15 16 17
13 12 11 11 9 10 11 10 10 9 11 12 12 13 14 14 15 15 15 14 14 14 14 12 12 11 10 10 9 9 10 9 9 9 7 6 5 5 4 3 3 1 2 3 3 2 3 3 3 4 3 3 3 3 5 6 4 7 12 14 15 15 15
11 11 11 12 10 10 11 11 13 12 12 13 13 14 15 15 15 16 16 16 15 15 15 14 14 13 12 12 11 11 11 10 10 10 10 8 7 6 5 4 4 3 1 3 2 2 3 3 4 5 4 2 3 3 4 6 6 8 12 14 14 15 15
10 11 12 13 12 12 12 12 14 14 15 14 14 14 15 15 16 17 17 16 16 16 15 15 15 15 14 14 14 13 13 13 12 11 12 11 10 9 8 6 5 5 3 1 1 2 3 3 4 5 5 4 5 6 5 8 9 10 12 15 16 16 16
11 12 13 13 13 14 15 15 15 16 17 16 15 16 17 17 18 18 18 18 17 16 16 15 16 16 16 15 15 15 14 14 14 13 14 13 12 12 11 9 7 6 5 3 2 1 2 2 2 4 5 5 6 8 8 9 10 11 13 16 16 16 16
10 11 12 12 11 12 15 16 17 18 18 18 18 18 18 19 19 19 20 19 18 18 18 17 17 18 17 16 16 15 15 15 15 14 14 14 13 13 13 10 8 8 7 5 4 3 2 2 2 3 5 6 7 8 8 8 9 11 13 15 15 16 16
8 9 10 11 10 11 12 12 13 15 16 17 19 20 20 21 20 20 20 20 20 20 19 19 19 19 18 16 16 16 16 16 15 15 15 14 13 12 13 11 9 8 8 7 5 4 4 3 3 3 4 6 7 8 9 9 10 12 14 16 18 18 18
7 8 10 11 12 11 11 10 10 12 14 16 18 19 19 17 16 17 17 17 19 20 21 20 20 19 18 17 17 16 16 16 15 15 15 14 13 13 12 11 10 9 8 7 6 5 5 4 3 4 5 6 7 9 10 11 12 13 15 17 18 19 20
4 6 8 10 11 11 10 11 14 18 20 21 20 19 18 15 15 17 18 18 20 22 21 19 18 18 19 18 17 17 16 16 15 15 15 14 13 13 12 11 10 9 9 8 7 6 5 5 4 4 5 6 7 9 10 11 12 13 15 16 17 18 18
1 1 3 6 8 8 8 12 18 24 24 23 23 22 21 20 19 19 21 23 23 21 19 17 17 19 19 19 19 18 18 17 16 15 14 14 13 12 12 11 10 9 9 9 8 8 7 7 6 7 9 9 9 10 11 12 13 13 15 16 17 17 18
1 1 3 4 6 6 8 12 16 19 20 21 21 21 22 22 21 21 23 24 23 19 17 18 22 22 21 19 19 18 18 18 16 15 14 13 13 12 11 11 10 9 10 10 11 11 10 9 10 11 11 11 11 10 11 12 12 13 14 15 16 16 16
2 3 4 5 6 7 8 11 13 13 13 15 16 18 20 21 21 21 22 23 22 19 18 21 26 27 24 20 18 18 19 19 17 14 14 13 12 12 11 10 10 11 12 13 13 13 12 12 11 11 10 10 11 11 12 13 13 14 14 15 15 16 16
3 3 4 5 5 6 7 9 11 11 11 11 12 14 16 17 19 20 20 21 21 20 21 23 25 27 26 22 19 18 18 18 16 14 14 14 13 12 11 10 10 11 12 12 12 11 10 10 10 11 12 12 12 12 13 14 15 15 15 15 16 16 16
4 4 4 5 5 6 7 7 9 10 10 10 11 12 13 14 16 17 18 19 20 21 23 24 23 24 24 22 20 18 16 16 16 14 14 13 12 12 11 10 10 10 9 9 9 9 9 11 12 14 14 14 13 13 14 15 16 17 17 17 17 17 17
5 5 5 5 6 7 7 8 9 10 10 10 11 13 15 15 16 17 17 18 19 19 20 23 22 22 25 23 19 17 15 13 14 14 13 13 12 11 10 10 10 9 8 8 9 10 10 11 12 12 12 12 13 14 15 16 18 20 21 21 20 19 18
6 6 6 6 7 7 8 9 9 10 11 12 12 13 14 16 17 17 18 18 19 17 17 18 18 21 26 24 18 17 15 12 13 14 12 12 12 11 10 9 8 8 8 9 9 9 9 9 9 9 9 10 12 13 14 16 17 19 22 24 25 25 23
6 6 6 7 8 9 10 10 11 11 11 12 13 13 14 14 15 17 18 19 19 18 17 16 16 19 23 22 19 19 17 14 15 13 12 12 12 11 10 8 8 9 9 10 11 11 11 11 12 12 13 13 14 15 16 17 18 19 20 22 24 25 25
6 7 7 8 9 10 11 11 11 11 12 13 13 14 15 16 16 16 17 18 18 17 14 14 17 19 20 20 20 19 17 17 16 14 11 11 10 9 8 8 9 10 10 11 12 12 12 13 15 16 16 16 16 17 18 17 18 18 19 21 22 23 24
8 8 9 9 10 11 11 11 11 12 12 13 13 14 15 16 17 17 17 16 16 15 12 12 15 17 18 20 20 17 14 14 14 11 8 8 8 8 8 9 10 10 10 11 13 14 14 16 18 18 17 17 17 17 17 17 17 18 19 20 21 22 23
10 10 10 10 11 11 11 12 12 12 13 14 14 14 15 16 16 15 14 13 13 13 12 12 14 17 19 20 19 15 11 10 8 6 6 6 7 7 8 9 10 10 11 13 15 17 17 17 17 15 15 15 16 17 17 18 18 18 18 18 20 21 22
11 11 11 12 13 12 12 13 13 13 13 13 13 14 14 13 9 5 4 7 9 10 11 14 17 19 19 18 16 13 10 8 5 3 3 3 3 4 5 7 8 10 12 15 17 16 16 14 13 12 13 14 15 17 18 17 17 18 20 22 23 24 24
12 13 13 13 12 12 13 13 13 13 13 12 13 13 9 4 1 3 4 5 6 8 12 17 18 19 19 18 16 14 12 9 6 3 1 0 2 5 6 8 11 12 12 14 15 13 12 12 12 13 14 15 17 18 19 21 22 24 26 28 28 29 29
13 13 13 13 12 12 12 12 12 12 12 12 13 9 3 2 5 7 7 6 8 11 15 18 18 18 18 17 16 14 13 9 6 2 1 2 5 7 8 10 13 12 9 9 10 10 11 12 14 16 18 20 21 22 23 25 26 26 26 27 27 26 25
15 15 15 14 14 13 12 12 12 12 11 12 10 4 4 6 8 10 10 9 11 15 16 17 18 18 17 15 14 12 9 6 2 2 4 6 7 8 8 10 11 9 7 8 11 12 15 18 20 22 22 21 20 20 20 22 23 22 22 21 21 20 19
15 15 16 16 15 15 14 14 13 11 12 13 9 3 7 9 10 11 12 12 14 16 17 16 16 16 14 12 9 7 5 3 3 4 5 7 8 8 8 9 10 10 11 14 17 18 20 22 22 20 18 16 17 17 18 20 21 21 20 20 19 19 18
14 14 15 16 16 16 16 15 13 12 13 13 8 7 9 10 12 13 13 14 15 16 16 14 12 11 9 7 5 4 3 2 2 2 3 4 5 6 8 9 12 14 17 20 21 20 19 17 16 14 14 15 16 18 19 21 21 20 19 19 19 19 18

ECMWFFLT1_925_spd_033.txt.gz
Wind_Speed
23 23 21 20 18 16 17 16 14 13 13 12 10 11 11 10 10 9 10 12 10 7 6 7 8 7 10 12 12 12 11 10 9 8 9 8 7 6 6 5 3 4 5 4 4 3 2 1 1 2 2 2 4 7 7 7 7 6 5 5 6 6 6
23 23 21 20 18 17 18 17 15 15 14 12 11 11 11 10 9 9 11 13 11 10 9 9 8 8 9 10 10 10 10 11 12 11 11 10 10 9 5 4 4 5 5 4 3 2 2 2 1 2 3 4 4 5 6 6 5 5 4 5 6 6 7
25 23 21 21 19 18 19 17 14 14 14 12 11 11 11 10 9 9 11 12 11 10 10 10 10 10 10 10 10 9 9 10 10 12 12 11 12 13 10 7 6 5 4 2 2 1 1 1 0 1 3 5 5 5 5 4 4 5 5 6 7 8 8
26 24 23 22 20 19 19 17 14 14 15 13 12 11 10 9 9 10 10 11 10 9 8 9 10 10 10 10 10 10 10 9 9 10 10 9 10 12 13 13 12 10 8 8 7 7 6 3 1 1 4 6 4 4 4 2 3 3 5 7 8 9 11
26 25 24 23 22 20 19 18 17 16 15 14 12 10 9 9 10 9 9 9 9 8 8 8 8 8 8 9 9 9 9 8 9 11 11 11 11 12 13 14 14 13 12 11 9 9 9 7 5 3 5 7 4 5 7 4 4 6 6 6 5 5 8
25 25 23 23 22 20 20 20 19 16 14 14 12 10 9 9 10 9 7 7 7 7 8 9 7 6 6 6 7 8 10 10 9 11 11 12 11 11 11 11 11 12 12 10 9 9 8 9 10 6 5 6 3 5 7 8 9 9 9 7 5 5 7
25 24 21 22 22 19 20 20 18 16 15 13 12 11 9 8 9 9 6 5 7 6 7 9 7 5 4 5 7 8 9 8 8 9 10 10 11 10 10 9 9 10 9 9 9 10 9 10 10 8 6 5 4 6 7 9 12 12 14 13 7 6 10
24 23 20 20 20 19 18 19 17 16 14 13 12 10 9 9 8 8 6 4 5 5 6 9 9 6 5 3 4 6 6 6 7 9 8 10 11 11 9 7 8 9 8 7 7 7 9 9 9 8 7 5 4 6 6 8 10 11 15 16 12 12 15
23 21 20 19 18 18 17 17 16 15 14 13 13 11 10 10 9 8 7 5 4 4 6 9 9 7 5 2 2 4 5 7 7 8 8 10 11 11 9 6 7 8 6 6 5 4 6 8 8 9 9 6 3 3 3 5 6 6 13 16 10 11 16
22 20 20 19 17 16 16 16 15 14 14 14 14 13 11 11 11 9 8 6 5 4 5 8 8 6 5 3 2 4 5 6 5 4 6 8 10 10 8 5 5 6 6 7 8 7 7 7 7 7 9 8 6 3 2 3 4 2 9 16 12 12 17
20 18 18 18 17 16 15 17 15 13 13 14 14 14 12 12 12 10 9 8 6 5 5 7 7 6 6 6 3 3 5 5 5 4 4 5 6 8 7 5 3 4 6 8 8 9 8 7 6 5 5 6 6 5 3 2 2 3 9 15 13 14 18
17 16 15 16 18 17 15 16 17 14 13 13 14 14 13 12 11 11 10 10 9 7 5 6 7 7 7 8 6 5 6 6 5 6 6 4 4 5 8 7 3 3 5 5 5 6 6 7 7 6 5 5 5 4 4 2 1 4 10 15 16 17 19
15 16 15 15 18 19 16 15 15 14 13 13 13 13 13 12 11 11 11 11 11 10 8 7 8 8 8 8 7 7 8 7 6 7 7 6 4 5 8 7 4 3 4 4 5 4 1 2 4 4 4 5 4 2 2 1 2 6 11 14 15 18 18
14 15 14 14 16 19 18 16 14 13 12 13 13 13 13 13 12 11 11 11 12 12 12 10 9 10 9 8 8 9 10 9 8 9 9 6 6 6 6 7 5 3 4 6 6 3 1 1 2 3 2 1 2 1 1 2 3 7 12 13 14 16 16
14 14 12 12 12 15 17 17 16 14 12 12 12 13 13 13 13 11 11 11 12 13 14 12 11 11 11 10 10 10 11 11 10 11 11 9 8 7 6 7 6 5 5 5 4 3 2 3 2 2 2 1 2 3 3 5 5 7 12 15 15 15 14
12 12 11 10 8 10 12 13 13 14 14 13 11 10 10 13 14 12 11 10 12 14 16 16 14 13 13 13 12 13 13 13 12 12 13 12 11 9 8 8 7 7 7 4 3 3 3 2 2 1 2 1 2 3 4 5 6 7 10 14 14 14 15
10 10 10 9 8 8 9 10 11 13 13 12 12 9 7 11 14 14 12 12 15 16 15 15 15 15 15 15 15 15 16 15 14 14 14 14 14 12 11 10 8 8 8 6 3 3 2 1 1 2 3 2 3 4 4 4 6 7 9 12 15 17 17
9 9 9 9 9 8 7 7 9 11 11 11 12 11 9 9 11 12 13 13 15 16 14 13 13 14 17 19 18 17 18 18 17 16 15 14 15 14 14 14 11 9 9 7 4 3 3 3 4 3 4 4 5 6 7 7 8 9 10 13 17 18 18
10 11 11 12 13 13 11 10 10 12 13 14 14 14 15 14 13 14 16 17 17 16 15 15 16 17 19 22 22 21 19 20 20 19 17 15 16 16 16 16 13 11 10 9 7 6 5 6 6 6 5 6 6 7 8 9 9 10 11 13 16 18 19
10 11 12 12 13 13 13 13 14 15 15 15 14 15 15 15 16 16 17 20 22 20 17 17 19 20 20 21 24 24 23 21 21 21 19 17 17 16 15 15 14 12 11 10 8 8 8 8 8 7 6 7 8 9 10 11 11 11 12 14 16 17 18
7 6 6 8 9 10 10 11 12 14 15 15 15 15 15 15 15 15 15 18 22 22 21 21 21 21 21 21 23 24 26 26 23 22 20 18 18 17 15 15 15 13 12 11 10 10 10 10 10 8 8 9 11 12 12 12 12 12 12 14 16 17 18
5 3 3 4 5 5 5 5 6 8 10 11 13 15 16 17 18 18 16 17 19 21 21 23 23 22 22 23 22 21 24 28 27 23 21 19 18 18 17 16 14 13 13 13 12 12 12 11 11 10 11 12 12 12 12 13 13 13 14 14 16 17 18
3 2 2 2 2 3 3 3 4 5 6 7 8 10 12 14 17 19 18 18 19 20 21 23 24 23 22 23 23 20 20 23 25 24 22 21 20 19 19 18 16 14 14 14 13 13 13 12 12 13 14 13 11 10 11 12 13 13 14 15 17 17 16
1 0 0 1 1 1 2 3 5 6 7 9 9 8 8 9 10 12 14 16 18 19 20 22 22 22 21 21 23 22 20 19 22 24 23 22 22 20 19 19 18 17 16 15 14 14 13 13 13 14 13 11 10 10 10 11 12 13 14 15 17 17 16
2 2 2 2 3 4 4 4 4 4 5 7 8 10 10 10 9 9 10 13 14 15 17 18 19 19 18 18 20 22 22 20 20 22 23 23 23 21 20 19 18 17 16 14 14 14 14 14 14 13 12 11 10 10 11 12 14 15 16 18 19 20 20
2 3 2 2 3 5 5 6 6 6 6 6 6 7 9 10 12 12 12 13 13 14 14 14 14 15 16 17 18 20 21 20 20 21 23 23 22 22 21 19 17 15 13 13 13 13 12 13 13 12 12 11 10 10 10 11 12 14 17 19 21 22 23
3 2 2 2 3 4 5 6 7 8 9 9 9 9 9 9 10 12 14 16 16 15 13 12 12 14 15 15 16 17 17 17 19 22 23 22 22 21 20 18 16 13 12 11 10 10 10 11 11 11 11 10 10 9 10 12 14 15 16 18 20 22 22
4 3 2 3 4 5 6 7 8 8 9 10 11 12 13 13 13 13 14 15 16 16 14 13 14 15 14 14 14 14 14 15 19 21 20 20 19 18 17 16 14 13 11 10 9 10 11 11 12 13 13 13 13 13 14 16 17 17 17 17 19 21 20
3 2 2 3 5 6 7 8 9 9 9 9 10 11 13 14 15 16 16 16 15 16 16 16 15 14 13 14 14 14 14 17 19 19 18 18 17 15 14 13 12 10 9 10 11 11 12 12 14 15 16 16 16 17 18 19 17 15 15 16 17 18 17
5 4 4 5 6 7 8 8 9 9 9 10 11 12 13 13 14 15 16 16 15 15 16 16 14 13 12 13 15 16 16 17 18 18 16 14 12 10 8 8 7 8 9 11 11 11 12 12 14 15 15 15 16 16 17 16 15 13 14 16 17 17 17
7 7 6 6 7 7 8 8 8 9 9 10 11 11 13 13 13 13 14 14 13 13 14 13 12 12 12 13 15 16 16 17 16 14 12 10 9 8 7 7 7 8 10 10 11 11 12 13 14 14 13 13 13 14 14 14 15 16 17 19 20 21 23
9 10 10 10 10 11 13 13 12 11 11 11 12 12 12 11 10 10 10 10 9 9 10 9 9 11 12 14 15 16 16 16 14 12 12 12 11 10 8 7 7 7 7 8 9 10 11 12 12 11 11 12 13 15 16 17 19 20 21 22 22 23 24
11 11 11 11 11 12 13 13 12 11 11 11 11 11 10 7 5 5 4 4 4 5 7 8 11 12 14 15 15 14 14 14 14 13 13 13 12 9 6 4 3 3 4 5 6 8 8 8 9 10 12 14 17 18 18 18 18 19 19 20 20 21 21
11 11 11 11 11 11 11 10 10 9 8 8 8 8 6 5 4 3 2 3 4 6 8 10 13 14 15 15 14 13 13 13 13 12 11 9 8 5 1 2 3 3 4 4 5 6 7 9 11 14 16 16 16 16 15 15 16 16 18 20 21 21 20
14 15 16 15 15 15 14 14 13 11 9 8 7 5 5 5 4 4 4 4 6 9 11 12 14 14 14 13 12 12 11 11 9 8 6 4 2 0 1 3 4 3 3 5 6 9 11 14 15 15 14 13 12 12 13 14 16 18 20 21 22 22 21
17 17 17 16 16 16 16 16 16 16 15 12 8 8 9 8 7 6 7 8 9 11 13 13 13 13 12 11 11 10 8 7 6 4 3 1 1 1 1 2 3 3 6 8 11 14 15 15 14 11 10 10 11 13 14 16 17 19 20 21 21 22 22
12 11 11 12 11 12 14 15 15 16 16 15 12 12 13 12 10 10 11 12 12 13 13 13 12 11 10 9 8 7 6 4 3 2 3 3 2 2 1 2 4 7 10 12 14 15 14 12 10 9 10 11 12 13 14 15 16 18 19 20 20 20 20